Location: Cardiff
(53.7833°N, 113.6000°W)
Time: 06:47:23
(UTC+00:00)

SO-50 - Pass Details

Date: 07 December 2023
Orbit: 608 x 660 km, 64.6° (Epoch: 02 March)

Event Time Altitude Azimuth Distance (km) Brightness Sun altitude
Exits shadow 12:09:44 27° 28° (NNE) 1,233 ? -29.2°
Drops below altitude 10° 12:12:01 10° 41° (NE) 2,042 ? -28.9°
Sets 12:14:21 0° 47° (NE) 2,944 ? -28.5°
